Starlink 6274

operational
NORAD ID: 56776 Int'l Des: 2023-078 Owner: SPXS Country: US Constellation: starlink
LEOCIRCULAR

About Starlink 6274

Description loading...

Live Position

Loading 3D Globe...

Upcoming Passes

Altitude History

Altitude vs Time

uPlot chart will show altitude changes over time

Two-Line Element Set

1 56776U 23078K 25308.14507419 .00000546 00000-0 53520-4 0 9994
2 56776 69.9979 281.1775 0003079 269.8239 90.2567 14.98330134134363
Epoch: Nov 4, 2025 • Age: 8 hours

Current Status

Altitude 580.3 km
Velocity 7.57 km/s
Sub-Earth Point -26.24°S, 55.58°E
Launch Date May 31, 2023
Age 2.4 years
Type internet

Technical Details

Classification Payload
Mass 305.00 kg
Dry Mass 290.00 kg
Total Mass 305.00 kg
Length 0.20 m
Diameter 2.80 m
Span 9.00 m
Shape Box + pan
Manufacturer SPXS
Bus Type Starlink
Phase Status In Orbit
Owner/State SPXS/US

Large Constellations

Loading constellations...